Tracking 19625 objects as of 26-May-2019
HD Live streaming from Space Station
objects crossing your sky now
Watch Starlink satellites crossing your sky!

INTELSAT 602

Track INTELSAT 602 now!
INTELSAT 602 is classified as:


NORAD ID: 20315
Int'l Code: 1989-087A
Perigee: 36,147.8 km
Apogee: 36,155.3 km
Inclination: 12.8 °
Period: 1,454.4 minutes
Semi major axis: 42522 km
RCS: 19.9526 m2 (large)
Launch date: October 27, 1989
Source: International Telecommunications Satellite Organization (ITSO)
Launch site: FRENCH GUIANA (FRGUI)

Inclined orbit; Indian Ocean region; C-band and Ku-band broadcasting.
aabbcc
Your satellite tracking list
Your tracking list is empty




NASA's NSSDC Master Catalog

Two Line Element Set (TLE):
1 20315U 89087A   19146.03703323 -.00000258  00000-0  00000+0 0  9990
2 20315  12.8199  26.2811 0000887 357.0737 206.8390  0.99008848105794
Source of the keplerian elements: AFSPC